Forside
METAR-TAF:

METAR-TAF

Lufthavne :

Cloquet/Carlton County Airport

Cloquet, Minnesota, USA

Breddekreds: 46-42N, længdekreds: 092-30W, højde: 390 m

Aktuelle vejr

Denne rapport blev lavet for 20 minutter siden, kl. 18:19 UTC
Vind 7 kt fra sydvest, varierende mellem syd og nordvest
Temperatur 27°C
Fugtighed 39%
Tryk 1017 hPa
Sigt: 11.3 km
skyfri

METAR: KCOQ 031819Z AUTO 22007KT 170V310 7SM CLR 27/12 A3003 RMK AO2 TSNO

Tid: 13:39 (18:39 UTC)


TAF: fraværende

Vejrobservationer og prognoser fra mere end 4000 lufthavne (METAR og TAF).

De gule og røde prikker repræsenterer de meteorologiske stationer.

Flyt musen over at se navnet på stationen.

Så klik over at se vejr observationer og prognoser.

At skifte det kort: Klik på de grønne knapper med et sort kors for at zoome ind; på den grønne knap med en bindestreg for at zoome ud; eller på de grønne pile for tilstødende kort.


METAR-TAF: